Home   Weather   Waldkraiburg   Past weeks

Flag for Germany Past Weather in Waldkraiburg, Bavaria, Germany — Yesterday and Last 2 Weeks

Now
39 °F

Passing clouds.


Feels Like: 37 °F
Forecast: 25 / 59 °F
Wind: 3 mph from North

Location: Munich / Franz Josef Strauss Airport

Current Time: Apr 23, 2017 at 10:13:13 pm

Latest Report: Apr 23, 2017 at 9:20 pm


Visibility: N/A

Pressure: 30.21 "Hg

Humidity: 61%

Dew Point: 27 °F

Location of WaldkraiburgLocation

Past Weather in Waldkraiburg — Graph

°F

Waldkraiburg Temperature Yesterday

Maximum temperature yesterday: 54 °F (at 2:20 pm)
Minimum temperature yesterday: 36 °F (at 3:20 am)
Average temperature yesterday: 44 °F

High & Low Weather Summary for the Past Weeks

 TemperatureHumidityPressure
High73 °F (Apr 10, 2:50 pm)100% (Apr 9, 1:50 am)30.51 "Hg (Apr 9, 1:50 am)
Low23 °F (Apr 21, 5:50 am)31% (Apr 10, 2:50 pm)29.86 "Hg (Apr 17, 3:50 pm)
Average46 °F69%30.15 "Hg
* Reported Apr 8 8:20 pm — Apr 23 8:50 pm, Waldkraiburg, Weather by CustomWeather, © 2017

Note: Actual official high and low records may vary slightly from our data, if they occured in-between our weather recording intervals... More about our weather records

Advertising

Waldkraiburg Weather History for the Previous 24 Hours

Scroll right to see more
 ConditionsComfort  
Time TempWeatherWind HumidityBarometerVisibility
8:50 pm
Sun, Apr 23
39 °FClear.3 mph61%30.21 "Hg10 mi
8:20 pm41 °FPassing clouds.5 mph57%30.21 "HgN/A
7:50 pm43 °FSunny.7 mph53%30.18 "Hg10 mi
7:20 pm45 °FPassing clouds.10 mph46%30.18 "HgN/A
6:50 pm46 °FSunny.12 mph43%30.18 "Hg10 mi
6:20 pm46 °FPassing clouds.10 mph43%30.18 "HgN/A
5:50 pm46 °FPassing clouds.15 mph43%30.18 "HgN/A
5:20 pm46 °FPassing clouds.12 mph46%30.18 "HgN/A
4:50 pm48 °FPassing clouds.13 mph46%30.18 "HgN/A
4:20 pm46 °FPartly sunny.12 mph46%30.18 "HgN/A
3:50 pm46 °FPartly sunny.15 mph50%30.18 "HgN/A
3:20 pm46 °FPartly sunny.12 mph46%30.18 "HgN/A
2:50 pm46 °FPartly sunny.14 mph46%30.18 "HgN/A
2:20 pm46 °FBroken clouds.13 mph50%30.18 "HgN/A
1:50 pm45 °FBroken clouds.16 mph53%30.21 "HgN/A
1:20 pm45 °FBroken clouds.13 mph57%30.21 "HgN/A
12:50 pm43 °FBroken clouds.15 mph57%30.21 "HgN/A
12:20 pm45 °FPartly sunny.14 mph57%30.21 "HgN/A
11:50 am45 °FPartly sunny.12 mph57%30.21 "HgN/A
11:20 am43 °FBroken clouds.12 mph66%30.21 "HgN/A
10:50 am43 °FBroken clouds.9 mph66%30.21 "HgN/A
10:20 am43 °FPartly sunny.9 mph71%30.21 "HgN/A
9:50 am41 °FPartly sunny.7 mph76%30.21 "HgN/A
9:20 am41 °FPartly sunny.9 mph76%30.21 "HgN/A
8:50 am41 °FPartly sunny.9 mph76%30.21 "HgN/A
8:20 am41 °FPartly sunny.7 mph76%30.21 "HgN/A
7:50 am39 °FPartly sunny.8 mph81%30.21 "HgN/A
7:20 am39 °FSunny.7 mph81%30.18 "Hg10 mi
6:50 am39 °FPartly sunny.8 mph81%30.18 "HgN/A
6:20 am39 °FBroken clouds.8 mph87%30.18 "HgN/A
5:50 am39 °FPassing clouds.7 mph87%30.18 "HgN/A
4:50 am39 °FPassing clouds.7 mph87%30.18 "HgN/A
4:20 am39 °FClear.7 mph87%30.15 "Hg10 mi
3:50 am39 °FClear.8 mph87%30.15 "Hg10 mi
3:20 am39 °FClear.7 mph93%30.15 "Hg10 mi
2:50 am41 °FClear.7 mph87%30.15 "Hg10 mi
2:20 am41 °FClear.8 mph87%30.15 "Hg10 mi
1:50 am41 °FClear.8 mph93%30.18 "Hg10 mi
1:20 am41 °FPassing clouds.7 mph93%30.15 "HgN/A
12:50 am41 °FPassing clouds.6 mph93%30.15 "HgN/A
12:20 am41 °FPassing clouds.7 mph93%30.15 "HgN/A
11:50 pm
Sat, Apr 22
41 °FPassing clouds.8 mph93%30.15 "HgN/A
11:20 pm43 °FLight rain. Passing clouds.6 mph87%30.15 "HgN/A
10:50 pm43 °FLight rain. Passing clouds.6 mph87%30.15 "HgN/A
10:20 pm43 °FPassing clouds.7 mph87%30.15 "HgN/A
Weather by CustomWeather, © 2017

See weather overviewHow to use our weather pages